Meteo Giornale » Osservazioni meteo Olanda » Rotterdam Zestienhoven

ore: 20:25 - Osservazioni Meteo Rotterdam Zestienhoven
Lat. 51° 57' N Lon. 4° 27' E Alt. -5 metri s.l.m.

sereno

17 °C

Sereno

Temp. 24 Ore

14 °C

21 °C

Ovest

7.4 Km/h

Dew point 12 °C

Umidità 72 %

Visibilità  10 Km

Il sole sorge alle ore 06:54

Il sole tramonta alle ore 20:30

Data e Ora Cielo e Fenomeni T °C DP °C Um. % Pres. hPa Vis. km Vento km/h
Oggi h: 20:25 sereno Sereno 17 12 72 1020 10 O 7.4
Oggi h: 19:55 sereno Sereno 18 12 67 1020 10 O 9.3
Oggi h: 19:25 sereno Sereno 19 12 63 1020 10 O 11.1
Oggi h: 18:55 sereno Sereno 19 12 63 1020 10 O 13
Oggi h: 18:25 sereno Sereno 20 12 59 1020 10 O 14.8
Oggi h: 17:55 sereno Sereno 20 12 59 1020 10 O 14.8
Oggi h: 17:25 sereno Sereno 20 12 59 1020 10 O 13
Oggi h: 16:55 sereno Sereno 20 12 59 1020 10 O 14.8
Oggi h: 16:25 nuvoloso Nuvoloso 20 13 64 1020 10 O 16.7
Oggi h: 15:55 sereno Sereno 20 12 59 1020 10 O 18.5
Oggi h: 15:25 nuvoloso Nuvoloso 21 13 60 1020 10 O 18.5
Oggi h: 14:55 molto_nuvoloso Molto Nuvoloso 21 13 60 1020 10 O 20.3
Oggi h: 14:25 molto_nuvoloso Molto Nuvoloso 21 12 56 1020 10 O 18.5
Oggi h: 13:55 nuvoloso Nuvoloso 21 12 56 1020 10 O 20.3
Oggi h: 13:25 molto_nuvoloso Molto Nuvoloso 21 13 60 1020 10 O 18.5
Oggi h: 12:55 nuvoloso Nuvoloso 21 12 56 1020 10 O 16.7
Oggi h: 12:25 nuvoloso Nuvoloso 20 13 64 1020 10 O 18.5
Oggi h: 11:55 poco_nuvoloso Poco Nuvoloso 20 12 59 1020 10 O 18.5
Oggi h: 11:25 poco_nuvoloso Poco Nuvoloso 19 12 63 1019 10 O/NO 16.7
Oggi h: 10:55 poco_nuvoloso Poco Nuvoloso 19 13 68 1019 10 O 16.7
Oggi h: 10:25 nuvoloso Nuvoloso 19 13 68 1019 10 O 13
Oggi h: 09:55 coperto Coperto 18 14 77 1019 10 O 14.8
Oggi h: 09:25 sereno Sereno 19 14 72 1018 10 O 11.1
Oggi h: 08:55 sereno Sereno 18 14 77 1018 10 O/NO 7.4
Oggi h: 08:25 poco_nuvoloso Poco Nuvoloso 17 14 82 1018 10 O 7.4
Oggi h: 07:55 coperto Coperto 17 14 82 1018 10 O 7.4
Oggi h: 07:25 coperto Coperto 17 15 88 1017 10 SO 9.3
Oggi h: 06:55 nuvoloso Nuvoloso 16 15 93 1017 10 SO 7.4
Oggi h: 06:25 molto_nuvoloso Molto Nuvoloso 15 15 100 1017 10 SO 9.3
Oggi h: 05:55 poco_nuvoloso Poco Nuvoloso 15 15 100 1017 10 N 5.5
Oggi h: 05:25 sereno Sereno 14 14 100 1017 10 N 5.5
Oggi h: 04:55 nuvoloso Nuvoloso 15 14 93 1017 10 O/SO 7.4
Oggi h: 04:25 sereno Sereno 15 14 93 1016 10 O/SO 7.4
Oggi h: 03:55 coperto_pioggia Pioggia 16 15 93 1016 10 SO 7.4
Oggi h: 03:25 coperto_pioggia Pioggia 16 15 93 1016 10 N 3.7
Oggi h: 02:55 sereno Sereno 15 15 100 1016 10 N 5.5
Oggi h: 02:25 sereno Sereno 15 15 100 1016 10 S/SO 7.4
Oggi h: 01:55 sereno Sereno 15 14 93 1016 10 S/SO 9.3
Oggi h: 01:25 sereno Sereno 14 13 93 1016 10 S/SO 7.4
Oggi h: 00:55 sereno Sereno 15 13 87 1016 10 SO 7.4
Oggi h: 00:25 poco_nuvoloso Poco Nuvoloso 16 14 87 1016 10 SO 9.3
Ieri h: 23:55 coperto_temporali Temporale 17 15 88 1016 10 N 1.8
Ieri h: 23:25 nuvoloso Nuvoloso 19 16 82 1015 10 O/SO 14.8
Ieri h: 22:55 sereno Sereno 19 16 82 1015 10 O/SO 14.8
Ieri h: 22:25 molto_nuvoloso Molto Nuvoloso 19 16 82 1015 10 O/SO 16.7
Ieri h: 21:55 poco_nuvoloso Poco Nuvoloso 19 15 77 1015 10 O/SO 16.7
Ieri h: 21:25 molto_nuvoloso Molto Nuvoloso 19 15 77 1014 10 O/SO 16.7
Ieri h: 20:55 sereno Sereno 18 14 77 1014 10 O/SO 13